Location: Unspecified
(0.0000°N, 0.0000°E)
Time: 12:19:44
(UTC+00:00)

Hubble Space Telescope - Pass Details

Date: 06 December 2019
Orbit: 536 x 540 km, 28.5° (Epoch: 10 December)

Event Time Altitude Azimuth Distance (km) Brightness Sun altitude
Rises 04:50:03 0° 223° (SW) 2,680 4.1 -14.0°
Reaches altitude 10° 04:52:32 10° 211° (SSW) 1,788 3.3 -13.4°
Maximum altitude 04:56:08 29° 151° (SSE) 1,010 2.8 -12.6°
Drops below altitude 10° 04:59:44 10° 90° (E) 1,784 4.6 -11.8°
Sets 05:02:13 0° 78° (ENE) 2,673 5.3 -11.2°
